Location: Burgtal
(47.8757°N, 9.0228°E)
Time: 08:21:39
(UTC+00:00)

Daily predictions for brighter satellites

Satellite Brightness Start Highest point End
(mag) Time Altitude Azimuth Time Altitude Azimuth Time Altitude Azimuth
BREEZE-M DEB (TANK) 4.5 19:22:17 10° W 19:25:10 24° SSW 19:31:24 10° SSE
Spot 2 Rocket 4.1 19:24:09 10° SE 19:28:49 40° ENE 19:33:30 10° N
SL-16 R/B 3.0 19:23:42 10° NNW 19:29:00 38° NE 19:34:16 10° ESE
Cosmos 1607 4.0 19:22:54 10° SSW 19:29:04 85° SE 19:35:22 10° NE
ERS-1 Rocket 3.0 19:26:51 10° SSE 19:31:51 85° ENE 19:36:54 10° NNW
Meteor 1-27 4.2 19:27:55 10° S 19:33:32 75° E 19:39:06 10° NNE
IRAS Rocket 4.5 19:29:05 10° S 19:34:33 75° WSW 19:40:05 10° NNW
MetOp-B 4.2 19:34:00 10° SSE 19:39:21 85° ENE 19:44:44 10° NNW
Cosmos 1459 Rocket 4.4 19:35:09 10° SSW 19:41:19 67° W 19:47:26 10° N
Cosmos 2061 Rocket 4.2 19:36:47 10° SSE 19:42:48 54° E 19:48:54 10° NNE
Cosmos 1980 Rocket 3.2 19:37:51 10° NW 19:43:16 45° WSW 19:48:37 10° S
CZ-4 R/B 2.3 19:40:47 10° S 19:44:14 43° W 19:47:44 10° NNW
USA 186 2.6 19:42:51 10° SE 19:45:11 28° ENE 19:47:36 10° N
Cosmos 2228 2.8 19:41:21 10° S 19:45:25 71° E 19:49:31 10° NNE
COSMOS 2406 3.5 19:40:32 10° S 19:45:59 46° ESE 19:51:26 10° NE
Cosmos 2084 Rocket 4.2 19:44:06 10° NW 19:48:08 46° SW 19:52:11 10° SSE
SL-08 R/B 3.4 19:43:37 10° NNE 19:48:22 56° E 19:52:59 10° S
ISS -2.6 19:46:19 10° W 19:49:33 45° N 19:52:48 10° ENE
Cosmos 1743 3.3 19:46:48 10° NNW 19:49:41 42° W 19:52:33 10° SSW
Cosmos 1461 3.0 19:46:31 10° S 19:49:58 38° ESE 19:53:25 10° NE
Cosmos 1455 Rocket 3.5 19:45:49 10° SSW 19:50:11 67° W 19:54:34 10° N
Cosmos 1992 Rocket 4.0 19:45:10 10° S 19:50:17 62° ESE 19:55:26 10° NNE
Cosmos 1802 Rocket 4.2 19:44:58 10° SSW 19:51:08 75° W 19:57:17 10° N
Cosmos 1892 Rocket 4.2 19:47:41 10° NNW 19:51:55 57° W 19:56:07 10° S
SKYMED 3 4.3 19:48:15 10° NNE 19:52:14 75° ESE 19:56:11 10° S
Terra 2.0 19:47:37 10° S 19:52:17 72° WSW 19:57:00 10° NNW
Okean O Rocket 1.7 19:52:40 10° SSE 19:56:54 62° ENE 20:01:09 10° N
Cosmos 2333 Rocket 2.6 19:53:49 10° NNW 19:59:26 55° ENE 20:04:29 13° SE
NOSS 3-3 (A) 3.8 19:58:46 10° SW 20:03:57 85° NW 20:10:12 10° NE
Cosmos 1544 Rocket 3.8 19:59:49 10° SSE 20:03:59 47° E 20:08:08 10° NNE
Cosmos 1437 Rocket 3.1 20:03:17 11° SSE 20:06:27 38° E 20:09:48 10° NNE
Cosmos 2360 Rocket 3.0 20:04:03 10° NNW 20:09:25 41° NE 20:13:59 14° ESE
Helios 1A Rocket 3.6 20:06:39 10° N 20:09:39 42° WNW 20:12:38 10° SW
CZ-4B R/B 3.9 20:07:06 10° S 20:12:39 57° W 20:18:10 10° NNW
Cosmos 2233 Rocket 4.1 20:08:31 10° SSW 20:14:42 78° W 20:20:53 10° N
Okean-O 2.6 20:14:53 11° SSE 20:19:03 82° WSW 20:23:28 10° NNW
Cosmos 1486 Rocket 4.4 20:14:54 10° NNW 20:20:02 51° ENE 20:23:55 17° SE
Cosmos 909 Rocket 4.2 20:14:51 10° SW 20:21:10 79° NW 20:27:45 10° NE
Cosmos 1758 Rocket 3.5 20:17:35 10° N 20:22:01 88° E 20:25:51 14° S
Cosmos 2219 Rocket 3.3 20:16:55 10° NNW 20:22:04 34° NE 20:26:24 14° ESE
CZ-2C R/B 3.7 20:21:09 16° E 20:22:07 19° ENE 20:24:13 10° NNE
DNEPR-1 R/B 4.4 20:24:25 10° NW 20:29:56 78° NE 20:34:56 18° SE
USA 245 4.3 20:25:40 15° SSE 20:30:34 75° ENE 20:36:05 10° N
IRS-1C Rocket 4.4 20:27:08 18° SE 20:30:58 56° ENE 20:36:08 10° N
Nadezhda 4 Rocket 4.4 20:25:23 10° N 20:31:16 46° ENE 20:35:27 19° SE
Meteor 1-25 Rocket 4.2 20:25:49 10° N 20:31:29 70° ENE 20:35:41 18° SSE
Cosmos 1825 Rocket 4.4 20:30:35 10° N 20:34:37 36° ENE 20:36:52 21° SE
Cosmos 1805 3.2 20:32:05 10° N 20:35:14 45° ENE 20:36:34 27° SE
Cosmos 220 Rocket 3.8 20:32:21 10° SSW 20:36:22 68° ESE 20:40:27 10° NNE
NOSS 3-3 (C) 4.2 20:31:20 10° SW 20:36:35 65° NW 20:42:56 10° NE
Cosmos 2322 Rocket 2.3 20:36:24 10° NNW 20:42:04 71° ENE 20:45:49 22° SE
USA 306 4.1 20:43:49 10° NW 20:45:42 17° NNW 20:47:08 10° NNE
Cosmos 1602 Rocket 3.5 20:41:38 10° N 20:45:58 89° ENE 20:48:44 22° S
Cosmos 2082 Rocket 3.9 20:40:59 10° WSW 20:46:14 37° NW 20:51:31 10° NNE
NOSS 3-4 (A) 3.8 20:42:50 10° NW 20:49:33 89° NE 20:55:06 21° SE
NOSS 3-4 (C) 3.8 20:43:28 10° NW 20:50:13 88° NE 20:55:45 22° SE
Cosmos 1707 4.4 20:52:04 12° ENE 20:52:04 12° ENE 20:52:44 10° ENE
DELTA 2 R/B (1) 4.4 20:46:38 10° WSW 20:51:32 32° S 20:53:40 24° SSE
CZ-4B R/B 2.5 20:49:58 27° S 20:51:40 76° WSW 20:55:09 10° NNW
Cosmos 2151 3.6 20:52:13 10° NNW 20:56:11 48° W 20:59:04 17° SSW
Cosmos 2098 Rocket 3.0 20:53:24 19° S 20:56:43 76° E 21:00:50 10° NNE
Cosmos 1076 Rocket 4.0 20:54:35 10° N 20:58:42 45° ENE 21:00:20 30° SE
Cosmos 44 4.3 20:54:06 10° NNW 20:59:17 43° NE 21:02:45 19° ESE
Ariane Rocket 3.0 20:59:02 24° S 21:02:11 83° WSW 21:07:17 10° NNW
Cosmos 2278 4.1 21:03:36 10° NW 21:09:11 55° WSW 21:12:37 23° S
SPOT 3 Rocket 4.1 21:09:24 20° S 21:12:53 53° W 21:17:55 10° NNW
SL-16 R/B 3.1 21:07:50 10° NW 21:13:07 40° WSW 21:16:43 19° SSW
COSMOS 2428 4.1 21:08:54 10° NNW 21:13:55 30° NE 21:17:37 16° E
Meteor 1-5 Rocket 4.4 21:08:13 10° NNW 21:13:59 78° W 21:17:38 24° S
Cosmos 1763 Rocket 3.5 21:10:53 23° S 21:14:05 63° ESE 21:19:19 10° NNE
USA 186 4.2 21:13:21 10° WSW 21:14:37 12° W 21:15:54 10° WNW
USA 290 2.2 21:18:07 37° SW 21:19:12 73° WNW 21:22:21 10° NNE
Cosmos 1606 Rocket 3.5 21:17:14 27° SSW 21:19:36 82° W 21:23:56 10° N
Cosmos 1464 Rocket 4.0 21:18:41 17° SSW 21:23:32 79° W 21:29:46 10° N
Cosmos 990 Rocket 3.9 21:18:37 10° NNW 21:23:48 81° ENE 21:26:04 35° SSE
Helios 1B rocket 3.5 21:24:22 23° E 21:24:57 24° ENE 21:27:51 10° N
CZ-4B R/B 4.0 21:23:15 23° SSW 21:25:55 47° W 21:30:37 10° NNW
ISS -3.0 21:23:26 10° WNW 21:26:43 50° NNE 21:28:15 26° ENE
Okean 1 3.0 21:25:54 41° SSW 21:27:02 77° W 21:30:38 10° N
Cosmos 1726 Rocket 3.2 21:25:50 39° S 21:27:17 87° ESE 21:31:21 10° N
BREEZE-M DEB (TANK) 2.0 21:26:16 10° W 21:28:12 44° NW 21:28:12 44° NW
Okean O Rocket 4.1 21:31:02 10° SW 21:33:29 15° W 21:35:57 10° NW
Cosmos 1536 3.0 21:32:59 10° N 21:36:34 46° ENE 21:36:59 44° E
Cosmos-2242 2.9 21:37:47 50° SSE 21:38:37 64° E 21:42:42 10° NNE
Cosmos 1092 Rocket 4.0 21:36:21 10° N 21:42:33 75° E 21:45:21 35° SSE
Cosmos 2333 Rocket 3.7 21:38:40 10° NW 21:43:23 27° WSW 21:46:30 17° SSW
KORONAS-FOTON 4.1 21:43:53 42° ENE 21:43:53 42° ENE 21:46:48 10° NNE
Cosmos 2297 Rocket 3.8 21:46:14 17° E 21:46:20 17° E 21:49:56 10° ENE
Cosmos 841 Rocket 4.3 21:47:26 31° ESE 21:48:00 31° E 21:52:35 10° NE
Cosmos 1833 4.3 21:44:13 15° SSW 21:48:57 76° WNW 21:54:37 10° NNE
CZ-2C R/B 4.2 21:52:45 18° W 21:52:48 18° W 21:54:49 10° NW
Cosmos 2360 Rocket 3.1 21:48:09 10° NW 21:53:21 38° WSW 21:55:44 26° SSW
Cosmos 1842 3.8 21:56:49 35° NE 21:56:49 35° NE 21:59:06 10° NNE
Cosmos 1766 2.8 21:53:41 10° NNW 21:56:45 70° WNW 21:56:45 70° WNW
Cosmos 2322 3.9 21:52:20 10° NNW 21:58:00 62° ENE 22:00:18 35° SE
Cosmos 1975 3.7 21:55:47 10° N 21:59:08 32° ENE 21:59:14 32° ENE
Meteor 2-6 Rocket 4.4 21:58:28 39° SSE 22:00:33 61° E 22:06:25 10° NNE
Cosmos 2034 Rocket 4.4 21:58:36 22° SSW 22:02:46 62° WNW 22:09:03 10° N
Cosmos 2221 3.2 22:03:18 35° E 22:03:22 35° E 22:07:11 10° NNE
Cosmos 372 Rocket 3.9 21:58:49 10° NNW 22:03:58 80° ENE 22:05:24 48° SSE
Cosmos 1271 Rocket 3.1 22:06:21 44° ENE 22:06:21 44° ENE 22:09:04 10° NNE
Cosmos 2219 Rocket 2.7 22:00:45 10° NW 22:06:10 48° WSW 22:08:05 34° SSW
SL-08 ROCKET BODY 4.5 22:05:09 10° N 22:11:20 75° E 22:13:38 41° SSE
Cosmos 540 Rocket 4.2 22:07:44 18° SW 22:11:25 51° WNW 22:16:26 10° NNE
Helios 1A 3.1 22:13:31 10° N 22:17:23 62° WNW 22:18:07 51° WSW
Cosmos 2279 Rocket 4.0 22:16:40 41° S 22:18:58 75° E 22:25:14 10° NNE
RESURS DK-1 2.1 22:16:33 10° NNW 22:20:32 79° ENE 22:20:45 75° ESE
Aureole 1 Rocket 4.2 22:16:12 10° NNW 22:22:02 61° WSW 22:24:34 38° S
Cosmos 1707 3.9 22:23:33 25° WNW 22:23:33 25° WNW 22:25:45 10° NNW
Cosmos 1634 Rocket 4.1 22:22:33 34° SSW 22:25:22 72° W 22:31:36 10° N
Cosmos 2322 Rocket 4.0 22:21:29 10° NW 22:25:30 20° W 22:27:37 17° SW
Meteor 1-19 Rocket 4.4 22:24:37 44° SSE 22:26:11 60° E 22:32:02 10° NNE
Cosmos 1937 Rocket 3.5 22:23:43 10° NNW 22:28:52 72° ENE 22:30:09 50° SE
TSX-5 4.3 22:27:33 10° NW 22:29:55 41° WNW 22:29:55 41° WNW
Cosmos 2058 Rocket 4.0 22:30:59 33° WSW 22:32:17 42° WNW 22:36:25 10° N
Cosmos 468 Rocket 4.4 22:30:13 29° SW 22:32:47 59° WNW 22:38:00 10° NNE
SL-16 R/B 4.4 22:28:56 10° N 22:32:57 19° NE 22:36:58 10° E
Geosat 4.4 22:28:04 10° NNE 22:33:01 62° NW 22:35:38 27° SW
CZ-2C R/B 3.5 22:29:11 10° NNE 22:33:41 78° ESE 22:34:15 66° SSE
GP-B 3.8 22:31:47 10° NNE 22:35:54 39° E 22:36:11 38° E
BREEZE-M DEB 4.5 22:32:44 10° WSW 22:37:35 73° S 22:52:37 10° E
Meteor 2-9 Rocket 4.1 22:34:34 10° NNW 22:40:00 82° W 22:41:24 52° S
Cosmos 44 4.1 22:35:25 10° NW 22:40:24 39° WSW 22:41:01 38° SW
CZ-2C R/B 3.8 22:39:10 25° ESE 22:41:12 34° ENE 22:45:51 10° N
Lacrosse 4 Rocket 3.1 22:42:43 20° E 22:42:43 20° E 22:44:44 10° NE
Cosmos 2237 Rocket 2.6 22:39:19 10° NNW 22:44:56 56° ENE 22:47:09 35° ESE
SeaSat 1 4.5 22:43:02 10° E 22:46:49 23° NE 22:50:36 10° N
USA 234 3.5 22:42:04 10° ENE 22:48:21 47° SE 22:49:36 42° SSE
Cosmos 2266 Rocket 3.9 22:42:30 10° N 22:48:34 76° E 22:50:27 46° SSE
Cosmos 1980 3.9 22:43:34 10° NNW 22:49:13 64° ENE 22:51:12 40° SE
Cosmos 1470 3.5 22:46:49 10° NNW 22:49:19 36° WNW 22:49:19 36° WNW
ARIANE 5 R/B 2.6 22:52:41 64° SW 22:53:04 68° WSW 22:57:32 10° NNW
Intercosmos 24 4.3 22:49:58 10° N 22:53:29 45° ENE 22:53:29 45° ENE
ALOS 2 2.4 22:54:46 72° SSW 22:55:07 78° WSW 22:59:32 10° NNW
Cosmos 2227 Rocket 3.4 22:55:49 26° ESE 22:56:19 26° ESE 23:00:55 10° NE
Helios 1B rocket 3.7 22:58:18 24° W 22:58:18 24° W 23:00:49 10° NW
COSMOS 2428 2.9 22:52:54 10° NW 22:58:28 56° WSW 22:59:34 47° SSW
Meteor 2-4 Rocket 4.2 23:00:13 40° ESE 23:01:16 44° E 23:06:29 10° NNE
BlueWalker 3 4.2 23:05:22 14° ENE 23:05:22 14° ENE 23:05:58 10° ENE
ISS -1.4 23:00:17 10° WNW 23:01:11 17° WNW 23:01:11 17° WNW
Cosmos 1898 Rocket 4.0 22:58:56 10° NW 23:03:51 44° WSW 23:04:33 42° SW
Cosmos 2263 Rocket 3.8 23:03:56 19° ESE 23:04:28 19° E 23:08:18 10° ENE
CZ-2C R/B 3.5 23:02:21 10° NNE 23:08:04 60° E 23:09:26 47° SSE
Meteor 1-11 Rocket 3.7 23:03:15 10° NNW 23:08:53 73° W 23:10:10 53° SSW
Cosmos 1766 Rocket 3.7 23:05:33 10° N 23:09:48 56° ENE 23:10:08 55° E
SAR-Lupe-2 4.3 23:10:57 46° NW 23:10:57 46° NW 23:13:29 10° NNW
Meteor 1-10 Rocket 4.4 23:11:29 46° SSW 23:13:19 75° WNW 23:19:17 10° N
Cosmos 1238 Rocket 3.1 23:14:04 58° E 23:14:04 58° E 23:18:17 10° NNE
PSLV R/B 3.6 23:12:30 10° N 23:16:47 69° WNW 23:17:16 62° WSW
Cosmos 1655 Rocket 4.1 23:15:50 10° N 23:22:05 69° E 23:24:15 42° SSE
Cosmos 1814 Rocket 4.4 23:21:58 44° SE 23:22:34 46° ESE 23:27:34 10° NNE
Meteor 1-27 Rocket 3.7 23:25:49 51° SSW 23:27:23 86° W 23:33:10 10° N
Alouette 2 Rocket 3.7 23:23:46 10° N 23:27:38 71° ENE 23:28:18 60° SE
Cosmos 841 Rocket 4.5 23:27:23 27° WSW 23:29:38 41° WNW 23:34:36 10° N
Cosmos 2297 Rocket 2.2 23:27:59 48° SW 23:29:38 80° WNW 23:35:20 10° NNE
NOSS 0 Rocket 4.3 23:23:52 10° NW 23:29:41 45° WSW 23:30:48 41° SW
Meteor 2-10 Rocket 4.0 23:24:51 10° N 23:30:22 62° ENE 23:32:13 41° SE
SL-14 R/B 4.3 23:39:49 34° E 23:39:49 34° E 23:43:08 10° NNE
Cosmos 2221 4.2 23:39:35 21° W 23:40:28 23° WNW 23:43:50 10° NNW
Cosmos 158 Rocket 4.0 23:39:40 57° S 23:40:41 74° ESE 23:46:01 10° NNE
CZ-4C R/B 4.2 23:39:09 10° NNE 23:41:47 34° ENE 23:41:47 34° ENE
MetOp-A 4.0 23:42:38 52° SW 23:43:07 54° W 23:47:43 10° NNW
ACS3 Solar Sail 2.4 23:38:32 10° NNE 23:44:13 43° E 23:46:10 33° SE
Landsat 5 3.4 23:44:26 10° NNE 23:48:27 67° E 23:48:27 67° E
